TimeEEST,TemperatureF,Dew PointF,Humidity,Sea Level PressureIn,VisibilityMPH,Wind Direction,Wind SpeedMPH,Gust SpeedMPH,PrecipitationIn,Events,Conditions,WindDirDegrees,DateUTC
12:20 AM,53.6,15.8,22,30.12,-9999.0,West,4.6,-,N/A,,Clear,280,2013-10-10 21:20:00
12:50 AM,51.8,14.0,22,30.12,-9999.0,West,5.8,-,N/A,,Clear,270,2013-10-10 21:50:00
1:20 AM,53.6,17.6,24,30.12,-9999.0,Calm,Calm,-,N/A,,Clear,0,2013-10-10 22:20:00
1:50 AM,50.0,17.6,28,30.12,-9999.0,WNW,2.3,-,N/A,,Clear,300,2013-10-10 22:50:00
2:20 AM,51.8,15.8,24,30.12,-9999.0,West,4.6,-,N/A,,Clear,270,2013-10-10 23:20:00
2:50 AM,50.0,17.6,28,30.12,-9999.0,WNW,4.6,-,N/A,,Clear,300,2013-10-10 23:50:00
3:00 AM,49,17,16,30.06,6,WNW,4.6,,,,,300,2013-10-11 00:00:00
3:20 AM,48.2,15.8,27,30.12,-9999.0,NW,5.8,-,N/A,,Clear,320,2013-10-11 00:20:00
3:50 AM,48.2,17.6,30,30.12,-9999.0,NNW,5.8,-,N/A,,Clear,330,2013-10-11 00:50:00
4:20 AM,50.0,17.6,28,30.12,-9999.0,NW,3.5,-,N/A,,Clear,310,2013-10-11 01:20:00
4:50 AM,50.0,17.6,28,30.12,-9999.0,West,3.5,-,N/A,,Clear,280,2013-10-11 01:50:00
5:20 AM,46.4,15.8,29,30.12,-9999.0,Variable,2.3,-,N/A,,Clear,0,2013-10-11 02:20:00
5:50 AM,51.8,17.6,26,30.12,-9999.0,West,4.6,-,N/A,,Clear,270,2013-10-11 02:50:00
6:20 AM,50.0,17.6,28,30.12,-9999.0,WNW,2.3,-,N/A,,Clear,290,2013-10-11 03:20:00
6:50 AM,48.2,17.6,30,30.12,-9999.0,West,4.6,-,N/A,,Clear,280,2013-10-11 03:50:00
7:20 AM,53.6,19.4,26,30.15,-9999.0,Variable,2.3,-,N/A,,Clear,0,2013-10-11 04:20:00
7:50 AM,57.2,23.0,27,30.15,-9999.0,Variable,1.2,-,N/A,,Clear,0,2013-10-11 04:50:00
8:20 AM,59.0,24.8,27,30.15,-9999.0,ENE,3.5,-,N/A,,Clear,70,2013-10-11 05:20:00
8:50 AM,62.6,26.6,26,30.15,-9999.0,East,3.5,-,N/A,,Clear,100,2013-10-11 05:50:00
9:00 AM,63,27,14,30.10,12,East,3.5,,,,,100,2013-10-11 06:00:00
9:20 AM,64.4,28.4,26,30.15,-9999.0,ESE,3.5,-,N/A,,Clear,120,2013-10-11 06:20:00
9:50 AM,68.0,30.2,24,30.15,-9999.0,East,4.6,-,N/A,,Clear,90,2013-10-11 06:50:00
10:20 AM,71.6,30.2,22,30.15,-9999.0,East,4.6,-,N/A,,Clear,80,2013-10-11 07:20:00
10:50 AM,75.2,23.0,14,30.12,-9999.0,Variable,3.5,-,N/A,,Clear,0,2013-10-11 07:50:00
11:20 AM,77.0,24.8,14,30.12,-9999.0,Variable,3.5,-,N/A,,Clear,0,2013-10-11 08:20:00
11:50 AM,77.0,24.8,14,30.12,-9999.0,Variable,5.8,-,N/A,,Clear,0,2013-10-11 08:50:00
12:20 PM,78.8,24.8,14,30.09,-9999.0,Variable,3.5,-,N/A,,Clear,0,2013-10-11 09:20:00
12:50 PM,78.8,24.8,14,30.09,-9999.0,Variable,3.5,-,N/A,,Clear,0,2013-10-11 09:50:00
1:20 PM,80.6,24.8,13,30.09,-9999.0,Variable,2.3,-,N/A,,Clear,0,2013-10-11 10:20:00
1:50 PM,82.4,23.0,11,30.06,-9999.0,ENE,4.6,-,N/A,,Clear,60,2013-10-11 10:50:00
2:20 PM,82.4,23.0,11,30.06,-9999.0,North,4.6,-,N/A,,Clear,10,2013-10-11 11:20:00
2:50 PM,82.4,23.0,11,30.06,-9999.0,NNW,4.6,-,N/A,,Clear,330,2013-10-11 11:50:00
3:00 PM,83,20,4,29.99,12,NW,4.6,,,,,320,2013-10-11 12:00:00
3:20 PM,84.2,23.0,11,30.04,-9999.0,South,1.2,-,N/A,,Clear,180,2013-10-11 12:20:00
3:50 PM,82.4,21.2,10,30.04,-9999.0,West,3.5,-,N/A,,Clear,270,2013-10-11 12:50:00
4:20 PM,82.4,23.0,11,30.04,-9999.0,SE,4.6,-,N/A,,Clear,130,2013-10-11 13:20:00
4:50 PM,80.6,23.0,12,30.04,-9999.0,SE,3.5,-,N/A,,Clear,140,2013-10-11 13:50:00
5:20 PM,78.8,23.0,13,30.04,-9999.0,SE,4.6,-,N/A,,Clear,130,2013-10-11 14:20:00
5:50 PM,75.2,21.2,13,30.04,-9999.0,South,3.5,-,N/A,,Clear,170,2013-10-11 14:50:00
6:20 PM,73.4,21.2,14,30.04,-9999.0,South,2.3,-,N/A,,Clear,190,2013-10-11 15:20:00
6:50 PM,69.8,21.2,16,30.04,-9999.0,SSW,3.5,-,N/A,,Clear,210,2013-10-11 15:50:00
7:20 PM,68.0,21.2,17,30.04,-9999.0,Calm,Calm,-,N/A,,Clear,0,2013-10-11 16:20:00
7:50 PM,66.2,17.6,15,30.06,-9999.0,West,6.9,-,N/A,,Clear,280,2013-10-11 16:50:00
8:20 PM,64.4,17.6,16,30.06,-9999.0,WSW,9.2,-,N/A,,Clear,250,2013-10-11 17:20:00
8:50 PM,66.2,17.6,15,30.06,-9999.0,West,11.5,-,N/A,,Clear,270,2013-10-11 17:50:00
9:00 PM,67,18,7,29.99,12,West,11.5,,,,,270,2013-10-11 18:00:00
9:20 PM,64.4,17.6,16,30.06,-9999.0,West,8.1,-,N/A,,Clear,280,2013-10-11 18:20:00
9:50 PM,62.6,17.6,18,30.06,-9999.0,West,6.9,-,N/A,,Clear,280,2013-10-11 18:50:00
10:20 PM,62.6,19.4,19,30.06,-9999.0,WNW,5.8,-,N/A,,Clear,290,2013-10-11 19:20:00
10:50 PM,62.6,19.4,19,30.06,-9999.0,West,8.1,-,N/A,,Clear,280,2013-10-11 19:50:00
11:20 PM,60.8,17.6,19,30.04,-9999.0,WNW,6.9,-,N/A,,Clear,290,2013-10-11 20:20:00
11:50 PM,62.6,19.4,19,30.04,-9999.0,West,6.9,-,N/A,,Clear,270,2013-10-11 20:50:00